Location: Newark
(51.3318°N, 0.0053°E)
Time: 04:54:31
(UTC+00:00)

BlueWalker 3 - Pass Details

Date: 07 December 2022
Orbit: 499 x 517 km, 53.2° (Epoch: 28 January)

Event Time Altitude Azimuth Distance (km) Brightness Sun altitude
Rises 19:17:19 0° 288° (WNW) 2,627 6.6 -30.8°
Reaches altitude 10° 19:19:48 10° 275° (W) 1,733 5.5 -31.2°
Enters shadow 19:21:31 19° 253° (WSW) 1,251 4.5 -31.4°
